Regional Weather Roundup
Issued by NWS Newport/Morehead, NC

Current Version | Previous Version | Graphics & Text | Print | Product List | Glossary On
Versions: 1 2 3 4 5 6 7 8 9 10 11 12 13 14 15 16 17 18 19 20 21 22 23 24 25 26 27 28 29 30 31 32 33 34 35 36 37 38 39 40 41 42 43 44 45 46 47 48 49 50
494 ASUS42 KMHX 290813 RWRMHX WEATHER ROUNDUP FOR EASTERN NORTH CAROLINA NATIONAL WEATHER SERVICE NEWPORT/MOREHEAD CITY NC 400 AM EDT FRI JUL 29 2016 NOTE: "FAIR" INDICATES FEW OR NO CLOUDS BELOW 12,000 FEET WITH NO SIGNIFICANT WEATHER AND/OR OBSTRUCTIONS TO VISIBILITY NCZ015>017-031-032-045>047-102-103-290900- NORTH COAST CITY SKY/WX TMP DP RH WIND PRES REMARKS EDENTON CLEAR 85 73 65 SW9G18 29.84F ELIZABETH CITY CLEAR 82 73 74 SW10 29.82F KITTY HAWK MOSUNNY 83 75 75 SW9 29.83S MANTEO N/A 82 78 85 W14 29.85S $$ NCZ045>047-081-094-103-104-290900- CENTRAL COAST CITY SKY/WX TMP DP RH WIND PRES REMARKS FRISCO CLEAR 81 78 91 SW10 29.87F $$ NCZ095-097-098-100-101-290900- SOUTHERN COAST CITY SKY/WX TMP DP RH WIND PRES REMARKS BEAUFORT CLEAR 83 78 85 W14 29.89S CEDAR ISLAND NOT AVBL JACKSONVILLE CLEAR 79 74 84 SW7 29.89S PINEY ISLAND NOT AVBL WILMINGTON CLEAR 81 77 88 SW8 29.91S $$ NCZ011>013-027>030-043-044-078>080-089-090>093-098-290900- COASTAL PLAIN CITY SKY/WX TMP DP RH WIND PRES REMARKS AHOSKIE PTCLDY 77 72 84 SW3 29.83F CLINTON CLEAR 79 76 90 CALM 29.89F ELIZABETHTOWN CLEAR 79 76 91 SW3 29.90F GOLDSBORO PTCLDY 81 75 81 SW9 29.86S GREENVILLE PTCLDY 81 75 83 SW7 29.88F HAVELOCK CLEAR 79 74 84 SW7 29.90S KENANSVILLE NOT AVBL KINSTON PTCLDY 80 75 84 SW7 29.88F NEW BERN CLEAR 80 74 81 SW7 29.90S RICHLANDS CLEAR 79 76 90 SW7 29.90 ROCKY MOUNT CLEAR 78 73 84 SW5 29.85F WASHINGTON PTCLDY 80 74 83 SW6 29.86F WHITEVILLE CLEAR 80 75 86 SW5 29.91S $$ AMZ130-135-150-152-154-156-158-170-250-252-270-ANZ085-086-088-633-658-670-290900- MARINE OBSERVATIONS STATION/POSITION TIME TEMP WIND PRES WAVE SWELL AIR SEA DIR/SP/G HT/PER HT/PER (UTC) (F) (DEG/KT/KT) (MB) (FT/S) (FT/S) CHESAPEAKE LIGHT NOT AVBL 64 E VA BEACH 0750 83 81 220/ 14/ 16 1009.1 3/ 5 DUCK 0700 85 68 220/ 13/ 16 1009.6 2 E DUCK 0741 74 N/A 1/ 8 OREGON INLET 0700 85 82 210/ 14/ 17 1010.7 13E OREGON INLT 0800 80 N/A 3/ 5 2/11 HATTERAS CG 0700 82 84 210/ 7/ 11 1011.9 DIAMOND BUOY 0750 85 85 230/ 19/ 21 1011.4 4/ 5 2/10 CAPE LOOKOUT 0800 83 240/ 11/ 13 1012.0 BEAUFORT LAB 0700 83 83 260/ 7/ 12 1011.8 30 SE NEW RVR IN 0708 85 85 230/ 19/ 23 1012.4 30 SE NEW RVR IN 0755 85 N/A 5/ 6 27 SE WRIGHTSVLE 0708 85 84 230/ 17/ 23 1013.0 5 SE WRIGHTSVLE 0708 82 80 250/ 12/ 16 1013.4 225 S CAPE HAT 0750 83 84 250/ 8/ 10 1015.3 3/ 6 3/ 6 41 SE CHARLESTON 0750 86 86 230/ 19/ 23 1013.1 5/ 5 $$

USA.gov is the U.S. government's official web portal to all federal, state and local government web resources and services.